Time,TemperatureF,DewpointF,PressureIn,WindDirection,WindDirectionDegrees,WindSpeedMPH,WindSpeedGustMPH,Humidity,HourlyPrecipIn,Conditions,Clouds,dailyrainin,SoftwareType,DateUTC
2013-08-05 00:12:00,67.0,66.0,-100.00,South,170,2.0,4.0,95,0.00,,,-99.99,,2013-08-05 05:12:00,
2013-08-05 00:32:00,67.0,65.0,-100.00,SSE,155,2.0,4.0,95,0.00,,,-99.99,,2013-08-05 05:32:00,
2013-08-05 00:43:00,67.0,66.0,-100.00,SSE,160,1.0,6.0,95,0.00,,,-99.99,,2013-08-05 05:43:00,
2013-08-05 00:53:00,67.0,65.0,-100.00,SE,125,1.0,4.0,95,0.00,,,-99.99,,2013-08-05 05:53:00,
2013-08-05 01:12:00,67.0,65.0,-100.00,SE,130,1.0,5.0,95,0.04,,,-99.99,,2013-08-05 06:12:00,
2013-08-05 01:32:00,66.0,64.0,-100.00,ESE,105,3.0,4.0,95,0.00,,,-99.99,,2013-08-05 06:32:00,
2013-08-05 01:43:00,66.0,65.0,-100.00,South,170,0.0,3.0,95,0.00,,,-99.99,,2013-08-05 06:43:00,
2013-08-05 01:52:00,66.0,65.0,-100.00,SSE,165,2.0,4.0,95,0.00,,,-99.99,,2013-08-05 06:52:00,
2013-08-05 02:12:00,66.0,64.0,-100.00,ESE,115,1.0,3.0,95,0.00,,,-99.99,,2013-08-05 07:12:00,
2013-08-05 02:32:00,65.0,63.0,-100.00,SE,130,2.0,2.0,95,0.00,,,-99.99,,2013-08-05 07:32:00,
2013-08-05 02:43:00,66.0,65.0,-100.00,SSE,160,2.0,4.0,95,0.00,,,-99.99,,2013-08-05 07:43:00,
2013-08-05 03:12:00,66.0,65.0,-100.00,SE,145,2.0,4.0,95,0.00,,,-99.99,,2013-08-05 08:12:00,
2013-08-05 03:34:00,67.0,65.0,-100.00,SSE,155,2.0,4.0,95,0.00,,,-99.99,,2013-08-05 08:34:00,
2013-08-05 03:48:00,66.0,65.0,-100.00,SSE,160,2.0,4.0,95,0.00,,,-99.99,,2013-08-05 08:48:00,
2013-08-05 04:17:00,67.0,66.0,-100.00,SSE,165,4.0,7.0,95,0.00,,,-99.99,,2013-08-05 09:17:00,
2013-08-05 04:47:00,68.0,66.0,-100.00,South,175,4.0,9.0,95,0.00,,,-99.99,,2013-08-05 09:47:00,
2013-08-05 05:33:00,67.0,66.0,-100.00,SE,145,2.0,8.0,95,0.00,,,-99.99,,2013-08-05 10:33:00,
2013-08-05 05:46:00,68.0,66.0,-100.00,South,180,4.0,7.0,95,0.00,,,-99.99,,2013-08-05 10:46:00,
2013-08-05 05:53:00,68.0,66.0,-100.00,SSW,205,3.0,9.0,95,0.00,,,-99.99,,2013-08-05 10:53:00,
2013-08-05 06:14:00,68.0,66.0,-100.00,SW,220,4.0,6.0,95,0.00,,,-99.99,,2013-08-05 11:14:00,
2013-08-05 06:49:00,67.0,66.0,-100.00,SW,225,7.0,11.0,95,0.00,,,-99.99,,2013-08-05 11:49:00,
2013-08-05 07:33:00,68.0,66.0,-100.00,SW,220,1.0,6.0,95,0.00,,,-99.99,,2013-08-05 12:33:00,
2013-08-05 07:48:00,68.0,66.0,-100.00,SSW,200,2.0,4.0,95,0.00,,,-99.99,,2013-08-05 12:48:00,
2013-08-05 08:38:00,70.0,69.0,-100.00,SSE,165,4.0,7.0,95,0.00,,,-99.99,,2013-08-05 13:38:00,
2013-08-05 09:38:00,71.0,70.0,-100.00,WSW,250,4.0,14.0,95,0.00,,,-99.99,,2013-08-05 14:38:00,
2013-08-05 09:47:00,72.0,71.0,-100.00,SW,230,4.0,9.0,95,0.00,,,-99.99,,2013-08-05 14:47:00,
2013-08-05 10:14:00,72.0,71.0,-100.00,SW,235,2.0,7.0,95,0.00,,,-99.99,,2013-08-05 15:14:00,
2013-08-05 10:24:00,74.0,72.0,-100.00,SW,225,2.0,4.0,95,0.00,,,-99.99,,2013-08-05 15:24:00,
2013-08-05 10:37:00,74.0,73.0,-100.00,WSW,250,2.0,4.0,95,0.00,,,-99.99,,2013-08-05 15:37:00,
2013-08-05 10:47:00,74.0,72.0,-100.00,West,260,4.0,6.0,95,0.00,,,-99.99,,2013-08-05 15:47:00,
2013-08-05 11:08:00,76.0,74.0,-100.00,SSW,210,4.0,7.0,95,0.00,,,-99.99,,2013-08-05 16:08:00,
2013-08-05 11:45:00,76.0,74.0,-100.00,WSW,255,1.0,6.0,95,0.00,,,-99.99,,2013-08-05 16:45:00,
2013-08-05 12:05:00,75.0,74.0,-100.00,SW,220,4.0,6.0,95,0.00,,,-99.99,,2013-08-05 17:05:00,
2013-08-05 12:16:00,75.0,74.0,-100.00,SW,220,6.0,7.0,95,0.00,,,-99.99,,2013-08-05 17:16:00,
2013-08-05 12:22:00,76.0,74.0,-100.00,West,270,4.0,10.0,95,0.00,,,-99.99,,2013-08-05 17:22:00,
2013-08-05 12:47:00,75.0,74.0,-100.00,WNW,290,6.0,12.0,95,0.00,,,-99.99,,2013-08-05 17:47:00,
2013-08-05 13:26:00,76.0,75.0,-100.00,WNW,290,7.0,10.0,95,0.00,,,-99.99,,2013-08-05 18:26:00,
2013-08-05 14:26:00,81.0,77.0,-100.00,SSW,200,7.0,14.0,87,0.00,,,-99.99,,2013-08-05 19:26:00,
2013-08-05 15:15:00,79.0,76.0,-100.00,WNW,290,6.0,9.0,92,0.00,,,-99.99,,2013-08-05 20:15:00,
2013-08-05 21:15:00,78.0,77.0,-100.00,ENE,65,1.0,1.0,95,0.00,,,-99.99,,2013-08-06 02:15:00,
2013-08-05 21:26:00,77.0,76.0,-100.00,ENE,65,0.0,1.0,95,0.00,,,-99.99,,2013-08-06 02:26:00,
2013-08-05 21:32:00,77.0,75.0,-100.00,ENE,60,0.0,1.0,95,0.00,,,-99.99,,2013-08-06 02:32:00,
2013-08-05 21:45:00,76.0,75.0,-100.00,South,175,1.0,1.0,95,0.00,,,-99.99,,2013-08-06 02:45:00,
2013-08-05 22:01:00,75.0,74.0,-100.00,East,100,0.0,2.0,95,0.00,,,-99.99,,2013-08-06 03:01:00,
2013-08-05 22:16:00,75.0,73.0,-100.00,SSE,165,1.0,2.0,95,0.00,,,-99.99,,2013-08-06 03:16:00,
2013-08-05 22:25:00,74.0,72.0,-100.00,South,185,1.0,2.0,95,0.00,,,-99.99,,2013-08-06 03:25:00,
2013-08-05 22:35:00,74.0,72.0,-100.00,South,185,1.0,2.0,95,0.00,,,-99.99,,2013-08-06 03:35:00,
2013-08-05 22:45:00,74.0,72.0,-100.00,ESE,110,1.0,1.0,95,0.00,,,-99.99,,2013-08-06 03:45:00,
2013-08-05 23:01:00,72.0,71.0,-100.00,SE,140,2.0,4.0,95,0.00,,,-99.99,,2013-08-06 04:01:00,
2013-08-05 23:11:00,73.0,71.0,-100.00,SSE,155,1.0,2.0,95,0.00,,,-99.99,,2013-08-06 04:11:00,
2013-08-05 23:22:00,72.0,71.0,-100.00,South,175,1.0,2.0,95,0.00,,,-99.99,,2013-08-06 04:22:00,
2013-08-05 23:33:00,72.0,70.0,-100.00,SE,130,1.0,2.0,95,0.00,,,-99.99,,2013-08-06 04:33:00,
2013-08-05 23:44:00,72.0,71.0,-100.00,South,175,1.0,2.0,95,0.00,,,-99.99,,2013-08-06 04:44:00,